TimeGMT,TemperatureF,Dew PointF,Humidity,Sea Level PressureIn,VisibilityMPH,Wind Direction,Wind SpeedMPH,Gust SpeedMPH,PrecipitationIn,Events,Conditions,WindDirDegrees,DateUTC
12:20 AM,48.2,48.2,100,29.39,1.1,East,6.9,-,N/A,,Mostly Cloudy,80,2013-03-08 00:20:00
12:50 AM,48.2,48.2,100,29.39,1.0,East,6.9,-,N/A,,Mostly Cloudy,90,2013-03-08 00:50:00
1:20 AM,48.2,48.2,100,29.39,1.1,East,6.9,-,N/A,,Overcast,90,2013-03-08 01:20:00
1:50 AM,48.2,48.2,100,29.39,1.1,East,6.9,-,N/A,,Overcast,90,2013-03-08 01:50:00
2:20 AM,48.2,48.2,100,29.39,1.0,East,8.1,-,N/A,,Overcast,90,2013-03-08 02:20:00
2:50 AM,48,48,98,29.40,1,East,6.9,,,,Mist,90,2013-03-08 02:50:00
2:50 AM,48.2,48.2,100,29.39,1.1,East,6.9,-,N/A,,Mostly Cloudy,90,2013-03-08 02:50:00
3:20 AM,48.2,48.2,100,29.39,1.1,East,5.8,-,N/A,,Mostly Cloudy,80,2013-03-08 03:20:00
3:50 AM,48.2,48.2,100,29.39,1.1,East,5.8,-,N/A,,Mostly Cloudy,90,2013-03-08 03:50:00
4:20 AM,48.2,48.2,100,29.39,1.1,ENE,4.6,-,N/A,,Mostly Cloudy,70,2013-03-08 04:20:00
4:50 AM,48.2,48.2,100,29.39,1.1,ENE,5.8,-,N/A,,Mostly Cloudy,70,2013-03-08 04:50:00
5:20 AM,48.2,48.2,100,29.39,0.7,East,5.8,-,N/A,,Mostly Cloudy,80,2013-03-08 05:20:00
5:50 AM,49,48,95,29.40,1,ENE,4.6,,,,Mist,60,2013-03-08 05:50:00
5:50 AM,48.2,48.2,100,29.39,0.8,East,4.6,-,N/A,,Mostly Cloudy,80,2013-03-08 05:50:00
6:20 AM,48.2,48.2,100,29.39,0.9,ENE,4.6,-,N/A,,Mostly Cloudy,70,2013-03-08 06:20:00
6:50 AM,48.2,48.2,100,29.42,0.9,ENE,4.6,-,N/A,,Mostly Cloudy,70,2013-03-08 06:50:00
7:20 AM,48.2,46.4,93,29.42,1.1,East,4.6,-,N/A,,Mostly Cloudy,80,2013-03-08 07:20:00
7:50 AM,48.2,46.4,93,29.42,1.2,East,6.9,-,N/A,,Mostly Cloudy,100,2013-03-08 07:50:00
8:20 AM,48.2,46.4,93,29.42,1.2,East,5.8,-,N/A,,Mostly Cloudy,90,2013-03-08 08:20:00
8:50 AM,48,47,97,29.44,2,East,6.9,,,Rain,Drizzle,80,2013-03-08 08:50:00
8:50 AM,48.2,46.4,93,29.44,1.3,East,9.2,-,N/A,,Mostly Cloudy,90,2013-03-08 08:50:00
9:20 AM,48.2,46.4,93,29.44,1.2,East,5.8,-,N/A,,Mostly Cloudy,90,2013-03-08 09:20:00
9:50 AM,48.2,48.2,100,29.44,1.4,East,6.9,-,N/A,Rain,Light Rain,100,2013-03-08 09:50:00
10:20 AM,48.2,46.4,93,29.44,1.7,East,5.8,-,N/A,Rain,Light Rain,80,2013-03-08 10:20:00
10:50 AM,50.0,48.2,94,29.44,1.9,ENE,5.8,-,N/A,Rain,Light Rain,70,2013-03-08 10:50:00
11:20 AM,50.0,48.2,94,29.44,1.9,ENE,5.8,-,N/A,Rain,Light Rain,70,2013-03-08 11:20:00
11:50 AM,50,48,92,29.47,2,ENE,4.6,,,Rain,Light Rain,60,2013-03-08 11:50:00
11:50 AM,50.0,48.2,94,29.47,1.9,ENE,5.8,-,N/A,Rain,Light Rain,60,2013-03-08 11:50:00
12:20 PM,50.0,48.2,94,29.47,-9999.0,ENE,4.6,-,N/A,Rain,Light Rain,70,2013-03-08 12:20:00
12:50 PM,50.0,48.2,94,29.47,-9999.0,NE,4.6,-,N/A,Rain,Light Rain,40,2013-03-08 12:50:00
1:20 PM,50.0,48.2,94,29.47,-9999.0,Variable,3.5,-,N/A,Rain,Light Rain,0,2013-03-08 13:20:00
1:50 PM,50.0,48.2,94,29.47,2.8,NE,4.6,-,N/A,Rain,Light Rain,40,2013-03-08 13:50:00
2:20 PM,50.0,48.2,94,29.47,-9999.0,NE,4.6,-,N/A,Rain,Light Rain,40,2013-03-08 14:20:00
2:50 PM,51,49,92,29.49,3,NNE,4.6,,,Rain,Light Rain,30,2013-03-08 14:50:00
2:50 PM,50.0,48.2,94,29.47,3.1,ENE,4.6,-,N/A,Rain,Light Rain,60,2013-03-08 14:50:00
3:20 PM,50.0,48.2,94,29.47,3.1,Variable,3.5,-,N/A,Rain,Light Rain,0,2013-03-08 15:20:00
3:50 PM,50.0,48.2,94,29.47,3.7,Variable,3.5,-,N/A,,Light Drizzle,0,2013-03-08 15:50:00
4:20 PM,50.0,48.2,94,29.47,4.3,ENE,3.5,-,N/A,,Light Drizzle,60,2013-03-08 16:20:00
4:50 PM,50.0,48.2,94,29.50,4.3,Variable,3.5,-,N/A,,Light Drizzle,0,2013-03-08 16:50:00
5:20 PM,50.0,48.2,94,29.50,4.3,Variable,2.3,-,N/A,Rain,Light Rain,0,2013-03-08 17:20:00
5:50 PM,50,49,95,29.52,3,North,2.3,,,Rain,Light Rain,10,2013-03-08 17:50:00
5:50 PM,50.0,48.2,94,29.50,4.3,NE,4.6,-,N/A,Rain,Light Rain,40,2013-03-08 17:50:00
6:20 PM,50.0,48.2,94,29.50,3.7,NE,3.5,-,N/A,Rain,Light Rain,40,2013-03-08 18:20:00
6:50 PM,50.0,48.2,94,29.53,3.1,ENE,3.5,-,N/A,,Light Drizzle,60,2013-03-08 18:50:00
7:20 PM,50.0,48.2,94,29.53,3.1,ENE,3.5,-,N/A,,Light Drizzle,60,2013-03-08 19:20:00
7:50 PM,50.0,46.4,87,29.53,2.8,Variable,3.5,-,N/A,,Light Drizzle,0,2013-03-08 19:50:00
8:20 PM,48.2,46.4,93,29.53,1.6,North,4.6,-,N/A,,Light Drizzle,360,2013-03-08 20:20:00
8:50 PM,48,47,95,29.54,1,NNE,4.6,,,Rain,Light Drizzle,30,2013-03-08 20:50:00
8:50 PM,48.2,46.4,93,29.53,1.7,NNE,4.6,-,N/A,,Light Drizzle,30,2013-03-08 20:50:00
9:20 PM,48.2,46.4,93,29.53,1.6,NNE,4.6,-,N/A,Rain,Light Rain,30,2013-03-08 21:20:00
9:50 PM,48.2,46.4,93,29.53,1.4,NNE,4.6,-,N/A,,Light Drizzle,30,2013-03-08 21:50:00
10:20 PM,48.2,46.4,93,29.53,1.4,Variable,3.5,-,N/A,Rain,Light Rain,0,2013-03-08 22:20:00
10:50 PM,46.4,44.6,93,29.56,1.3,NNE,4.6,-,N/A,Rain,Light Rain,30,2013-03-08 22:50:00
11:20 PM,46.4,44.6,93,29.56,1.4,Variable,3.5,-,N/A,Rain,Light Rain,0,2013-03-08 23:20:00
11:50 PM,46,45,96,29.56,1,NE,4.6,,,Rain,Light Rain Showers,40,2013-03-08 23:50:00
11:50 PM,46.4,44.6,93,29.56,1.1,NE,4.6,-,N/A,Rain,Light Rain,40,2013-03-08 23:50:00